User: anonymous   Login
Location: Doschendorf
(50.0069°N, 11.0602°E)
Time: 12:09:44
(UTC+00:00)
Language:

NOSS 3-2 (C) - Orbit

View from above orbital plane
View from above orbital plane
View from above satellite
View from above satellite

Ground track
Ground track

The orbit data is extracted from the following two-line orbital elements,

1 28097U 03054C   20019.17133465 0.00000000  00000-0  00000-0 0    03
2 28097  63.4076  62.2615 0387192 359.1421   0.8579 13.40760121    05
Epoch (UTC): 19 January 2020 04:06:43
Eccentricity: 0.0387192
inclination: 63.4076°
perigee height: 816 km
apogee height: 1396 km
right ascension of ascending node: 62.2615°
argument of perigee: 359.1421°
revolutions per day: 13.40760121
mean anomaly at epoch: 0.8579°
orbit number at epoch: 0

The dashed part of the orbit path shows where the satellite is in the earth's shadow,  

DLR